Regional Weather Roundup
Issued by NWS Jackson, KY

Home | Current Version | Previous Version | Graphics & Text | Print | Product List | Glossary On
Versions: 1 2 3 4 5 6 7 8 9 10 11 12 13 14 15 16 17 18 19 20 21 22 23 24 25 26 27 28 29 30 31 32 33 34 35 36 37 38 39 40 41 42 43 44 45 46 47 48 49 50
000
ASUS43 KJKL 291910
RWRJKL

EAST KENTUCKY HOURLY WEATHER ROUNDUP
NATIONAL WEATHER SERVICE JACKSON KY
300 PM EDT SAT AUG 29 2015

NOTE: "FAIR" INDICATES FEW OR NO CLOUDS BELOW 12,000 FEET WITH
NO SIGNIFICANT WEATHER AND/OR OBSTRUCTIONS TO VISIBILITY.

* THESE REPORTS ARE NOT UNDER NWS QUALITY CONTROL AND MAY NOT
  REPORT WEATHER SUCH AS PRECIPITATION AND FOG.

KYZ079-080-083-085-087-088-110-112-115-119-120-292000
...EASTERN KENTUCKY...

CITY           SKY/WX    TMP DP  RH WIND       PRES   REMARKS
JACKSON        PTSUNNY   81  66  60 CALM      30.18F
LONDON         PTSUNNY   83  63  50 S5        30.16F
SOMERSET*      MOSUNNY   82  64  54 S7        30.14F
MONTICELLO*    PTSUNNY   85  70  60 S9        30.16F
WILLIAMSBURG*  SUNNY     79  64  61 E5        30.16F
MIDDLESBORO*   PTSUNNY   82  64  54 SE6       30.17F
HAZARD APT*    PTCLDY    84  64  51 CALM      30.17F
BLACK MTN*       N/A     72  61  68 SW3         N/A
PIKEVILLE APT* MOSUNNY   81  64  57 S3        30.19F
BIG SANDY*     PTCLDY    82  66  57 SW3       30.18F
MOREHEAD APT*  PTCLDY    84  64  51 SW10G17   30.16F
$$

KYZ035-036-041-042-044-050-067-078-099-292000
...CENTRAL KENTUCKY...

CITY           SKY/WX    TMP DP  RH WIND       PRES   REMARKS
MT STERLING*   MOSUNNY  N/A N/A N/A SW9       30.15F
FLEMING/MASON* PTSUNNY   79  68  69 CALM      30.14F
DANVILLE*      PTSUNNY   82  64  54 S6        30.14F
RICHMOND*      MOSUNNY   84  64  51 S5        30.14F
LEXINGTON      MOSUNNY   86  66  51 SE8       30.12F
FRANKFORT      MOSUNNY   86  66  51 SW8       30.10F
$$

KYZ091>093-OHZ055-061-077-WVZ005-015-034-035-042-292000
...SOUTHERN OHIO/WEST VIRGINIA...

CITY           SKY/WX    TMP DP  RH WIND       PRES   REMARKS
COVINGTON      PTSUNNY   85  65  51 SW9G16    30.10F
COLUMBUS       PTSUNNY   83  64  52 S7        30.10F
DAYTON         CLOUDY    81  67  62 SW12      30.11F
WILMINGTON     MOSUNNY   84  64  50 S14       30.11F
HUNTINGTON     MOSUNNY   86  64  47 S13       30.14F
CHARLESTON     LGT RAIN  80  65  59 SW8       30.16F
PINEVILLE*     PTSUNNY   82  65  57 MISG      30.26F
BECKLEY        PTSUNNY   76  58  53 W7        30.26S
BLUEFIELD      CLOUDY    78  56  46 CALM      30.27F
$$

VAZ002-007-008-TNZ017-027-036-066-071-292000
...SOUTHWEST VIRGINIA/EAST TENNESSEE...

CITY           SKY/WX    TMP DP  RH WIND       PRES   REMARKS
WISE*          PTSUNNY   79  54  41 SW7       30.28F
JONESVILLE*    MOCLDY    82  28  14 CALM      30.21F
ABINGDON*      CLOUDY    78  59  52 CALM      30.24F
BRISTOL        CLOUDY    81  59  47 CALM      30.20F
KNOXVILLE      PTSUNNY   89  71  55 VRB3      30.15F HX  95
OAK RIDGE      PTSUNNY   85  63  47 VRB3      30.16F
CROSSVILLE     MOSUNNY   81  65  58 S7        30.19F
NASHVILLE      PTSUNNY   87  68  52 SE12      30.09F HX  90
$$

...KEY TO REMARKS...
VSB - VISIBILITY IN MILES
WCI - WIND CHILL INDEX
HX  - HEAT INDEX

$$



USA.gov is the U.S. government's official web portal to all federal, state and local government web resources and services.